Home   Weather   Stassfurt   Past weeks

Flag for Germany Past Weather in Stassfurt, Saxony-Anhalt, Germany — Yesterday and Last 2 Weeks

Now
63 °F

Light rain. Partly sunny.


Feels Like: 63 °F
Forecast: 51 / 63 °F
Wind: 3 mph from Southwest

Location: Leipzig-Schkeuditz

Current Time: Oct 1, 2016 at 5:31:50 PM

Latest Report: Oct 1, 2016 at 4:50 PM


Visibility: N/A

Pressure: 29.77 "Hg

Humidity: 88%

Dew Point: 59 °F

Location of StassfurtLocation

Past Weather in Stassfurt — Graph

°F

Stassfurt Temperature Yesterday

Maximum temperature yesterday: 64 °F (at 12:20 AM)
Minimum temperature yesterday: 52 °F (at 9:50 PM)
Average temperature yesterday: 58 °F

High & Low Weather Summary for the Past Weeks

 TemperatureHumidityPressure
High79 °F (Sep 29, 3:20 PM)100% (Sep 16, 11:50 PM)30.33 "Hg (Sep 16, 11:50 PM)
Low48 °F (Sep 22, 6:50 AM)32% (Sep 29, 4:20 PM)29.80 "Hg (Oct 1, 2:20 PM)
Average60 °F77%30.09 "Hg
* Reported Sep 16 4:20 PM — Oct 1 4:20 PM, Stassfurt, Weather by CustomWeather, © 2016

Note: Actual official high and low records may vary slightly from our data, if they occured in-between our weather recording intervals... More about our weather records

Advertising

Stassfurt Weather History for the Previous 24 Hours

Scroll right to see more
 ConditionsComfort  
Time TempWeatherWind HumidityBarometerVisibility
4:20 PM
Sat, Oct 1
63 °FLight rain. Partly sunny.5 mph83%29.80 "HgN/A
3:50 PM63 °FLight rain. Partly sunny.5 mph83%29.80 "HgN/A
3:20 PM63 °FBroken clouds.7 mph83%29.80 "HgN/A
2:50 PM63 °FPartly sunny.6 mph83%29.80 "HgN/A
2:20 PM63 °FBroken clouds.5 mph88%29.80 "HgN/A
1:50 PM61 °FBroken clouds.6 mph88%29.83 "HgN/A
1:20 PM59 °FBroken clouds.6 mph94%29.83 "HgN/A
12:50 PM57 °FLight rain. Broken clouds.8 mph94%29.83 "HgN/A
12:20 PM55 °FLight rain. More clouds than sun.8 mph100%29.83 "HgN/A
11:50 AM55 °FLight rain. Mostly cloudy.8 mph94%29.86 "HgN/A
11:20 AM55 °FLight rain. More clouds than sun.6 mph94%29.86 "Hg4 mi
10:50 AM54 °FLight rain. More clouds than sun.3 mph100%29.86 "Hg5 mi
10:20 AM54 °FLight rain. Partly sunny.3 mph94%29.86 "HgN/A
9:50 AM54 °FLight rain. Broken clouds.5 mph94%29.86 "HgN/A
9:20 AM54 °FLight rain. More clouds than sun.7 mph94%29.86 "HgN/A
8:50 AM54 °FLight rain. More clouds than sun.3 mph94%29.89 "HgN/A
8:20 AM54 °FLight rain. More clouds than sun.3 mph94%29.89 "HgN/A
7:50 AM52 °FLight rain. More clouds than sun.3 mph100%29.89 "HgN/A
7:20 AM52 °FSunny.5 mph100%29.89 "Hg10 mi
6:50 AM52 °FClear.6 mph100%29.89 "Hg10 mi
6:20 AM52 °FClear.3 mph94%29.89 "Hg10 mi
5:50 AM52 °FClear.5 mph94%29.92 "Hg10 mi
5:20 AM50 °FClear.2 mph100%29.92 "Hg10 mi
4:50 AM50 °FPassing clouds.3 mph100%29.92 "HgN/A
4:20 AM50 °FPassing clouds.3 mph94%29.92 "HgN/A
3:50 AM50 °FClear.3 mph94%29.92 "Hg10 mi
3:20 AM50 °FClear.5 mph94%29.95 "Hg10 mi
2:50 AM50 °FClear.5 mph94%29.95 "Hg10 mi
2:20 AM50 °FClear.5 mph94%29.95 "Hg10 mi
1:50 AM50 °FClear.6 mph94%29.95 "Hg10 mi
1:20 AM50 °FClear.5 mph94%29.95 "Hg10 mi
12:50 AM50 °FClear.6 mph94%29.98 "Hg10 mi
12:20 AM52 °FPassing clouds.6 mph94%29.98 "HgN/A
11:50 PM
Fri, Sep 30
52 °FPassing clouds.6 mph94%29.98 "HgN/A
11:20 PM52 °FPassing clouds.7 mph88%29.98 "HgN/A
10:50 PM54 °FClear.7 mph88%29.98 "Hg10 mi
10:20 PM52 °FClear.7 mph94%29.98 "Hg10 mi
9:50 PM52 °FClear.6 mph100%29.98 "Hg10 mi
9:20 PM54 °FClear.6 mph88%29.98 "Hg10 mi
8:50 PM54 °FClear.7 mph94%29.98 "Hg10 mi
8:20 PM54 °FClear.8 mph94%29.98 "Hg10 mi
7:50 PM55 °FClear.9 mph88%29.98 "Hg10 mi
7:20 PM55 °FClear.8 mph88%29.98 "Hg10 mi
6:50 PM55 °FPassing clouds.9 mph88%29.95 "HgN/A
6:20 PM55 °FPartly sunny.9 mph88%29.95 "HgN/A
5:50 PM57 °FLight rain. Partly sunny.14 mph82%29.95 "HgN/A
5:20 PM59 °FPartly sunny.13 mph77%29.95 "HgN/A
Weather by CustomWeather, © 2016

See weather overviewHow to use our weather pages